Change the Weather History Date:

Saturday, January 25, 2014

  Actual Average Record
Temperature  
Mean Temperature 39 °F 52 °F  
Max Temperature 54 °F 62 °F 85 °F (1914)
Min Temperature 24 °F 43 °F 22 °F (1963)
Degree Days  
Heating Degree Days 26 13  
Month to date heating degree days 446 345  
Since 1 July heating degree days 1163 919  
Cooling Degree Days 0 0  
Month to date cooling degree days 0 0  
Year to date cooling degree days 0 0  
Moisture  
Dew Point 33 °F    
Average Humidity 74    
Maximum Humidity 93    
Minimum Humidity 54    
Precipitation  
Precipitation 0.00 in 0.15 in 1.71 in (2012)
Month to date precipitation 2.20 4.30  
Year to date precipitation 2.20 4.30  
Snow  
Snow 0.00 in 0.00 in T in (1979)
Month to date snowfall T 0.0  
Since 1 July snowfall T T  
Snow Depth 0.00 in    
Sea Level Pressure  
Sea Level Pressure 30.21 in    
Wind  
Wind Speed 5 mph (WSW)    
Max Wind Speed 14 mph    
Max Gust Speed 18 mph    
Visibility 10 miles    
Events      
T = Trace of Precipitation, MM = Missing Value Source: NWS Daily Summary

Daily Weather History Graph

Daily Weather History Graph

Search for Another Location

Airport or City:

Trip Planner

Search our weather history database for the weather conditions in past years. The results will help you decide how hot, cold, wet, or windy it might be!

Date:

Astronomy

Jan. 25, 2014 Rise Set
Actual Time 7:06 AM CST 5:43 PM CST
Civil Twilight 6:41 AM CST 6:09 PM CST
Nautical Twilight 6:12 AM CST 6:38 PM CST
Astronomical Twilight 5:43 AM CST 7:06 PM CST
Moon 1:41 AM CST (1/25) 12:44 PM CST (1/25)
Length of Visible Light 11h 27m
Length of Day
10h 37m
Waning Crescent, 34% of the Moon is Illuminated
Jan 25
Waning Crescent
Jan 30
New
Feb 6
First Quarter
Feb 14
Full
Feb 22
Last Quarter

Hourly Weather History & Observations

Time (CST) Temp. Windchill Dew Point Humidity Pressure Visibility Wind Dir Wind Speed Gust Speed Precip Events Conditions
12:53 AM 24.1 °F - 21.9 °F 91% 30.39 in 10.0 mi Calm Calm - N/A   Clear
1:53 AM 24.1 °F - 21.9 °F 91% 30.36 in 10.0 mi Calm Calm - N/A   Clear
2:53 AM 24.1 °F - 21.9 °F 91% 30.35 in 10.0 mi Calm Calm - N/A   Clear
3:53 AM 25.0 °F 19.3 °F 23.0 °F 92% 30.33 in 10.0 mi West 4.6 mph - N/A   Clear
4:53 AM 26.1 °F 21.9 °F 23.0 °F 88% 30.31 in 10.0 mi WSW 3.5 mph - N/A   Clear
5:53 AM 26.1 °F - 24.1 °F 92% 30.30 in 10.0 mi Calm Calm - N/A   Clear
6:53 AM 25.0 °F - 23.0 °F 92% 30.32 in 10.0 mi Calm Calm - N/A   Clear
7:53 AM 28.0 °F 24.2 °F 27.0 °F 96% 30.30 in 10.0 mi SW 3.5 mph - N/A   Clear
8:53 AM 33.1 °F 27.7 °F 30.9 °F 92% 30.29 in 10.0 mi WSW 5.8 mph - N/A   Clear
9:53 AM 37.0 °F 30.4 °F 32.0 °F 82% 30.28 in 10.0 mi WSW 9.2 mph - N/A   Clear
10:53 AM 42.1 °F 36.6 °F 34.0 °F 73% 30.27 in 10.0 mi WSW 9.2 mph - N/A   Clear
11:53 AM 46.0 °F 41.4 °F 35.1 °F 66% 30.23 in 10.0 mi WSW 9.2 mph - N/A   Clear
12:53 PM 50.0 °F - 35.1 °F 57% 30.18 in 10.0 mi WSW 8.1 mph - N/A   Clear
1:53 PM 51.1 °F - 37.0 °F 59% 30.13 in 10.0 mi WSW 10.4 mph - N/A   Clear
2:53 PM 53.1 °F - 37.9 °F 57% 30.11 in 10.0 mi WSW 9.2 mph - N/A   Clear
3:53 PM 52.0 °F - 39.0 °F 61% 30.10 in 10.0 mi SW 6.9 mph - N/A   Clear
4:53 PM 54.0 °F - 39.9 °F 59% 30.10 in 10.0 mi West 5.8 mph - N/A   Clear
5:53 PM 48.9 °F - 41.0 °F 74% 30.10 in 10.0 mi SSW 5.8 mph - N/A   Clear
6:53 PM 44.1 °F 42.5 °F 39.9 °F 85% 30.11 in 10.0 mi SW 3.5 mph - N/A   Clear
7:53 PM 45.0 °F 41.8 °F 41.0 °F 86% 30.12 in 10.0 mi SW 5.8 mph - N/A   Clear
8:53 PM 45.0 °F 41.8 °F 42.1 °F 90% 30.11 in 10.0 mi WSW 5.8 mph - N/A   Clear
9:53 PM 45.0 °F - 42.1 °F 90% 30.11 in 10.0 mi Calm Calm - N/A   Clear
10:53 PM 41.0 °F - 39.0 °F 93% 30.10 in 10.0 mi Calm Calm - N/A   Clear
11:53 PM 42.1 °F 40.2 °F 41.0 °F 96% 30.08 in 7.0 mi SW 3.5 mph - N/A   Clear